Year,Month,Day,Hour,Minute,Value (Times are PST for temperature in C)
2010,03,23,00,00,4.00
2010,03,23,00,01,4.00
2010,03,23,00,02,4.00
2010,03,23,00,03,4.00
2010,03,23,00,04,3.90
2010,03,23,00,05,3.90
2010,03,23,00,06,3.90
2010,03,23,00,07,3.90
2010,03,23,00,08,3.90
2010,03,23,00,09,3.90
2010,03,23,00,10,3.90
2010,03,23,00,11,4.00
2010,03,23,00,12,4.00
2010,03,23,00,13,4.00
2010,03,23,00,14,4.00
2010,03,23,00,15,4.00
2010,03,23,00,16,4.00
2010,03,23,00,17,3.90
2010,03,23,00,18,3.90
2010,03,23,00,19,3.90
2010,03,23,00,20,3.90
2010,03,23,00,21,3.90
2010,03,23,00,22,3.90
2010,03,23,00,23,3.90
2010,03,23,00,24,3.90
2010,03,23,00,25,3.80
2010,03,23,00,26,3.80
2010,03,23,00,27,3.80
2010,03,23,00,28,3.80
2010,03,23,00,29,3.80
2010,03,23,00,30,3.80
2010,03,23,00,31,3.80
2010,03,23,00,32,3.80
2010,03,23,00,33,3.80
2010,03,23,00,34,3.80
2010,03,23,00,35,3.80
2010,03,23,00,36,3.80
2010,03,23,00,37,3.80
2010,03,23,00,38,3.80
2010,03,23,00,39,3.80
2010,03,23,00,40,3.80
2010,03,23,00,41,3.80
2010,03,23,00,42,3.80
2010,03,23,00,43,3.80
2010,03,23,00,44,3.80
2010,03,23,00,45,3.80
2010,03,23,00,46,3.80
2010,03,23,00,47,3.80
2010,03,23,00,48,3.80
2010,03,23,00,49,3.80
2010,03,23,00,50,3.80
2010,03,23,00,51,3.80
2010,03,23,00,52,3.80
2010,03,23,00,53,3.80
2010,03,23,00,54,3.80
2010,03,23,00,55,3.80
2010,03,23,00,56,3.80
2010,03,23,00,57,3.80
2010,03,23,00,58,3.80
2010,03,23,00,59,3.80
2010,03,23,01,00,3.80
2010,03,23,01,01,3.80
2010,03,23,01,02,3.80
2010,03,23,01,03,3.80
2010,03,23,01,04,3.80
2010,03,23,01,05,3.80
2010,03,23,01,06,3.80
2010,03,23,01,07,3.80
2010,03,23,01,08,3.80
2010,03,23,01,09,3.80
2010,03,23,01,10,3.80
2010,03,23,01,11,3.80
2010,03,23,01,12,3.80
2010,03,23,01,13,3.80
2010,03,23,01,14,3.80
2010,03,23,01,15,3.80
2010,03,23,01,16,3.80
2010,03,23,01,17,3.80
2010,03,23,01,18,3.70
2010,03,23,01,19,3.70
2010,03,23,01,20,3.70
2010,03,23,01,21,3.60
2010,03,23,01,22,3.60
2010,03,23,01,23,3.60
2010,03,23,01,24,3.60
2010,03,23,01,25,3.60
2010,03,23,01,26,3.60
2010,03,23,01,27,3.50
2010,03,23,01,28,3.50
2010,03,23,01,29,3.50
2010,03,23,01,30,3.50
2010,03,23,01,31,3.50
2010,03,23,01,32,3.50
2010,03,23,01,33,3.40
2010,03,23,01,34,3.40
2010,03,23,01,35,3.40
2010,03,23,01,36,3.40
2010,03,23,01,37,3.40
2010,03,23,01,38,3.40
2010,03,23,01,39,3.40
2010,03,23,01,40,3.40
2010,03,23,01,41,3.40
2010,03,23,01,42,3.40
2010,03,23,01,43,3.40
2010,03,23,01,44,3.40
2010,03,23,01,45,3.40
2010,03,23,01,46,3.40
2010,03,23,01,47,3.40
2010,03,23,01,48,3.40
2010,03,23,01,49,3.40
2010,03,23,01,50,3.40
2010,03,23,01,51,3.40
2010,03,23,01,52,3.40
2010,03,23,01,53,3.40
2010,03,23,01,54,3.40
2010,03,23,01,55,3.40
2010,03,23,01,56,3.40
2010,03,23,01,57,3.40
2010,03,23,01,58,3.40
2010,03,23,01,59,3.40
2010,03,23,02,00,3.40
2010,03,23,02,01,3.40
2010,03,23,02,02,3.40
2010,03,23,02,03,3.40
2010,03,23,02,04,3.40
2010,03,23,02,05,3.40
2010,03,23,02,06,3.40
2010,03,23,02,07,3.40
2010,03,23,02,08,3.30
2010,03,23,02,09,3.30
2010,03,23,02,10,3.30
2010,03,23,02,11,3.30
2010,03,23,02,12,3.30
2010,03,23,02,13,3.30
2010,03,23,02,14,3.30
2010,03,23,02,15,3.30
2010,03,23,02,16,3.30
2010,03,23,02,17,3.30
2010,03,23,02,18,3.30
2010,03,23,02,19,3.20
2010,03,23,02,20,3.20
2010,03,23,02,21,3.20
2010,03,23,02,22,3.20
2010,03,23,02,23,3.20
2010,03,23,02,24,3.30
2010,03,23,02,25,3.30
2010,03,23,02,26,3.30
2010,03,23,02,27,3.30
2010,03,23,02,28,3.40
2010,03,23,02,29,3.40
2010,03,23,02,30,3.40
2010,03,23,02,31,3.30
2010,03,23,02,32,3.30
2010,03,23,02,33,3.30
2010,03,23,02,34,3.30
2010,03,23,02,35,3.30
2010,03,23,02,36,3.30
2010,03,23,02,37,3.30
2010,03,23,02,38,3.40
2010,03,23,02,39,3.40
2010,03,23,02,40,3.40
2010,03,23,02,41,3.40
2010,03,23,02,42,3.50
2010,03,23,02,43,3.50
2010,03,23,02,44,3.50
2010,03,23,02,45,3.50
2010,03,23,02,46,3.50
2010,03,23,02,47,3.50
2010,03,23,02,48,3.50
2010,03,23,02,49,3.50
2010,03,23,02,50,3.50
2010,03,23,02,51,3.50
2010,03,23,02,52,3.50
2010,03,23,02,53,3.50
2010,03,23,02,54,3.50
2010,03,23,02,55,3.50
2010,03,23,02,56,3.50
2010,03,23,06,03,2.20
2010,03,23,06,04,2.20
2010,03,23,06,05,2.20
2010,03,23,06,06,2.20
2010,03,23,06,07,2.20
2010,03,23,06,08,2.20
2010,03,23,06,09,2.20
2010,03,23,06,10,2.20
2010,03,23,06,11,2.30
2010,03,23,06,12,2.30
2010,03,23,06,13,2.30
2010,03,23,06,14,2.30
2010,03,23,06,15,2.40
2010,03,23,06,16,2.40
2010,03,23,06,17,2.40
2010,03,23,06,18,2.40
2010,03,23,06,19,2.30
2010,03,23,06,20,2.30
2010,03,23,06,21,2.30
2010,03,23,06,22,2.30
2010,03,23,06,23,2.40
2010,03,23,06,24,2.40
2010,03,23,06,25,2.40
2010,03,23,06,26,2.40
2010,03,23,06,27,2.40
2010,03,23,06,28,2.40
2010,03,23,06,29,2.40
2010,03,23,06,30,2.40
2010,03,23,06,31,2.40
2010,03,23,06,32,2.40
2010,03,23,06,33,2.40
2010,03,23,06,34,2.40
2010,03,23,06,35,2.40
2010,03,23,06,36,2.40
2010,03,23,06,37,2.40
2010,03,23,06,38,2.40
2010,03,23,06,39,2.40
2010,03,23,06,40,2.40
2010,03,23,06,41,2.40
2010,03,23,06,42,2.40
2010,03,23,06,43,2.40
2010,03,23,06,44,2.40
2010,03,23,06,45,2.40
2010,03,23,06,46,2.40
2010,03,23,06,47,2.50
2010,03,23,06,48,2.50
2010,03,23,06,49,2.40
2010,03,23,06,50,2.40
2010,03,23,06,51,2.40
2010,03,23,06,52,2.40
2010,03,23,06,53,2.40
2010,03,23,06,54,2.40
2010,03,23,06,55,2.40
2010,03,23,06,56,2.40
2010,03,23,06,57,2.40
2010,03,23,06,58,2.40
2010,03,23,06,59,2.40
2010,03,23,07,00,2.50
2010,03,23,07,01,2.50
2010,03,23,07,02,2.50
2010,03,23,07,03,2.50
2010,03,23,07,04,2.50
2010,03,23,07,05,2.50
2010,03,23,07,06,2.50
2010,03,23,07,07,2.60
2010,03,23,07,08,2.60
2010,03,23,07,09,2.70
2010,03,23,07,10,2.70
2010,03,23,07,11,2.70
2010,03,23,07,12,2.70
2010,03,23,07,13,2.70
2010,03,23,07,14,2.70
2010,03,23,07,15,2.70
2010,03,23,07,16,2.80
2010,03,23,07,17,2.80
2010,03,23,07,18,2.80
2010,03,23,07,19,2.90
2010,03,23,07,20,2.90
2010,03,23,07,21,2.90
2010,03,23,07,22,2.90
2010,03,23,07,23,2.90
2010,03,23,07,24,2.90
2010,03,23,07,25,2.90
2010,03,23,07,26,2.90
2010,03,23,07,27,2.90
2010,03,23,07,28,2.90
2010,03,23,07,29,2.90
2010,03,23,07,30,2.90
2010,03,23,07,31,2.90
2010,03,23,07,32,2.90
2010,03,23,07,33,2.90
2010,03,23,07,34,2.90
2010,03,23,07,35,2.90
2010,03,23,07,36,2.90
2010,03,23,07,37,3.00
2010,03,23,07,38,3.10
2010,03,23,07,39,3.10
2010,03,23,07,40,3.10
2010,03,23,07,41,3.10
2010,03,23,07,42,3.10
2010,03,23,07,43,3.10
2010,03,23,07,44,3.10
2010,03,23,07,45,3.20
2010,03,23,07,46,3.20
2010,03,23,07,47,3.20
2010,03,23,07,48,3.20
2010,03,23,07,49,3.20
2010,03,23,07,50,3.20
2010,03,23,07,51,3.20
2010,03,23,07,52,3.20
2010,03,23,07,53,3.30
2010,03,23,07,54,3.30
2010,03,23,07,55,3.30
2010,03,23,07,56,3.30
2010,03,23,07,57,3.30
2010,03,23,07,58,3.30
2010,03,23,07,59,3.30
2010,03,23,08,00,3.30
2010,03,23,08,01,3.30
2010,03,23,08,02,3.30
2010,03,23,08,03,3.30
2010,03,23,08,04,3.40
2010,03,23,08,05,3.40
2010,03,23,08,06,3.40
2010,03,23,08,07,3.40
2010,03,23,08,08,3.50
2010,03,23,08,09,3.50
2010,03,23,08,10,3.50
2010,03,23,08,11,3.60
2010,03,23,08,12,3.60
2010,03,23,08,13,3.60
2010,03,23,08,14,3.60
2010,03,23,08,15,3.60
2010,03,23,08,16,3.60
2010,03,23,08,17,3.60
2010,03,23,08,18,3.70
2010,03,23,08,19,3.70
2010,03,23,08,20,3.70
2010,03,23,08,21,3.70
2010,03,23,08,22,3.80
2010,03,23,08,23,3.80
2010,03,23,08,24,3.80
2010,03,23,08,25,3.80
2010,03,23,08,26,3.80
2010,03,23,08,27,3.80
2010,03,23,08,28,3.80
2010,03,23,08,29,3.80
2010,03,23,08,30,3.80
2010,03,23,08,31,3.90
2010,03,23,08,32,3.90
2010,03,23,08,33,3.90
2010,03,23,08,34,3.90
2010,03,23,08,35,3.90
2010,03,23,08,36,4.00
2010,03,23,08,37,4.00
2010,03,23,08,38,4.00
2010,03,23,08,39,4.00
2010,03,23,08,40,4.10
2010,03,23,08,41,4.10
2010,03,23,08,42,4.20
2010,03,23,08,43,4.20
2010,03,23,08,44,4.20
2010,03,23,08,45,4.30
2010,03,23,08,46,4.30
2010,03,23,08,47,4.30
2010,03,23,08,48,4.40
2010,03,23,08,49,4.40
2010,03,23,08,50,4.40
2010,03,23,08,51,4.40
2010,03,23,08,52,4.40
2010,03,23,08,53,4.50
2010,03,23,08,54,4.50
2010,03,23,08,56,4.50
2010,03,23,08,57,4.60
2010,03,23,08,58,4.60
2010,03,23,08,59,4.60
2010,03,23,09,00,4.50
2010,03,23,09,01,4.50
2010,03,23,09,02,4.50
2010,03,23,09,03,4.60
2010,03,23,09,04,4.60
2010,03,23,09,05,4.50
2010,03,23,09,06,4.50
2010,03,23,09,07,4.50
2010,03,23,09,08,4.50
2010,03,23,09,09,4.50
2010,03,23,09,10,4.60
2010,03,23,09,11,4.60
2010,03,23,09,12,4.60
2010,03,23,09,13,4.60
2010,03,23,09,14,4.70
2010,03,23,09,15,4.70
2010,03,23,09,16,4.80
2010,03,23,09,17,4.90
2010,03,23,09,18,4.90
2010,03,23,09,19,5.00
2010,03,23,09,20,5.10
2010,03,23,09,21,5.10
2010,03,23,09,22,5.20
2010,03,23,09,23,5.30
2010,03,23,09,24,5.30
2010,03,23,09,25,5.40
2010,03,23,09,26,5.50
2010,03,23,09,27,5.60
2010,03,23,09,28,5.60
2010,03,23,09,29,5.60
2010,03,23,09,30,5.70
2010,03,23,09,31,5.70
2010,03,23,09,32,5.70
2010,03,23,09,33,5.70
2010,03,23,09,34,5.70
2010,03,23,09,35,5.80
2010,03,23,09,36,5.80
2010,03,23,09,37,5.90
2010,03,23,09,38,6.00
2010,03,23,09,39,6.00
2010,03,23,09,40,6.10
2010,03,23,09,41,6.20
2010,03,23,09,42,6.30
2010,03,23,09,43,6.30
2010,03,23,09,44,6.40
2010,03,23,09,45,6.40
2010,03,23,09,46,6.40
2010,03,23,09,47,6.40
2010,03,23,09,48,6.40
2010,03,23,09,49,6.60
2010,03,23,09,50,6.60
2010,03,23,09,51,6.60
2010,03,23,09,52,6.60
2010,03,23,09,53,6.70
2010,03,23,09,54,6.80
2010,03,23,09,55,6.80
2010,03,23,09,56,6.80
2010,03,23,09,57,6.90
2010,03,23,09,58,6.90
2010,03,23,09,59,7.00
2010,03,23,10,00,7.10
2010,03,23,10,01,7.10
2010,03,23,10,02,7.20
2010,03,23,10,03,7.20
2010,03,23,10,04,7.30
2010,03,23,10,05,7.30
2010,03,23,10,06,7.30
2010,03,23,10,07,7.40
2010,03,23,10,08,7.40
2010,03,23,10,09,7.50
2010,03,23,10,10,7.60
2010,03,23,10,11,7.60
2010,03,23,10,12,7.70
2010,03,23,10,13,7.80
2010,03,23,10,14,7.80
2010,03,23,10,15,7.90
2010,03,23,10,16,8.00
2010,03,23,10,17,8.10
2010,03,23,10,18,8.30
2010,03,23,10,19,8.50
2010,03,23,10,20,8.70
2010,03,23,10,21,8.80
2010,03,23,10,22,8.90
2010,03,23,10,23,9.00
2010,03,23,10,24,9.10
2010,03,23,10,25,9.20
2010,03,23,10,26,9.20
2010,03,23,10,27,9.20
2010,03,23,10,28,9.20
2010,03,23,10,29,9.20
2010,03,23,10,30,9.30
2010,03,23,10,31,9.30
2010,03,23,10,32,9.30
2010,03,23,10,33,9.20
2010,03,23,10,34,9.20
2010,03,23,10,35,9.20
2010,03,23,10,36,9.30
2010,03,23,10,37,9.30
2010,03,23,10,38,9.40
2010,03,23,10,39,9.40
2010,03,23,10,40,9.40
2010,03,23,10,41,9.50
2010,03,23,10,42,9.50
2010,03,23,10,43,9.60
2010,03,23,10,44,9.60
2010,03,23,10,45,9.60
2010,03,23,10,46,9.70
2010,03,23,10,47,9.80
2010,03,23,10,48,9.90
2010,03,23,10,49,10.10
2010,03,23,10,50,10.30
2010,03,23,10,51,10.40
2010,03,23,10,52,10.50
2010,03,23,10,53,10.60
2010,03,23,10,54,10.60
2010,03,23,10,55,10.60
2010,03,23,10,56,10.60
2010,03,23,10,57,10.70
2010,03,23,10,58,10.70
2010,03,23,10,59,10.80
2010,03,23,11,00,10.80
2010,03,23,11,01,10.70
2010,03,23,11,02,10.70
2010,03,23,11,03,10.60
2010,03,23,11,04,10.60
2010,03,23,11,05,10.60
2010,03,23,11,06,10.40
2010,03,23,11,07,10.40
2010,03,23,11,08,10.40
2010,03,23,11,09,10.30
2010,03,23,11,10,10.30
2010,03,23,11,11,10.30
2010,03,23,11,12,10.30
2010,03,23,11,13,10.20
2010,03,23,11,14,10.10
2010,03,23,11,15,9.90
2010,03,23,11,16,9.90
2010,03,23,11,17,9.80
2010,03,23,11,18,9.80
2010,03,23,11,19,9.80
2010,03,23,11,20,9.70
2010,03,23,11,21,9.70
2010,03,23,11,22,9.70
2010,03,23,11,23,9.70
2010,03,23,11,24,9.60
2010,03,23,11,25,9.50
2010,03,23,11,26,9.40
2010,03,23,11,27,9.30
2010,03,23,11,28,9.30
2010,03,23,11,29,9.20
2010,03,23,11,30,9.20
2010,03,23,11,31,9.20
2010,03,23,11,32,9.20
2010,03,23,11,33,9.20
2010,03,23,11,34,9.30
2010,03,23,11,35,9.30
2010,03,23,11,36,9.30
2010,03,23,11,37,9.30
2010,03,23,11,38,9.40
2010,03,23,11,39,9.40
2010,03,23,11,40,9.50
2010,03,23,11,41,9.50
2010,03,23,11,42,9.60
2010,03,23,11,43,9.70
2010,03,23,11,44,9.70
2010,03,23,11,45,9.70
2010,03,23,11,46,9.60
2010,03,23,11,47,9.50
2010,03,23,11,48,9.50
2010,03,23,11,49,9.40
2010,03,23,11,50,9.40
2010,03,23,11,51,9.40
2010,03,23,11,52,9.30
2010,03,23,11,53,9.30
2010,03,23,11,54,9.30
2010,03,23,11,55,9.30
2010,03,23,11,56,9.40
2010,03,23,11,57,9.40
2010,03,23,11,58,9.50
2010,03,23,11,59,9.70
2010,03,23,12,00,9.70
2010,03,23,12,01,9.70
2010,03,23,12,02,9.80
2010,03,23,12,03,9.90
2010,03,23,12,04,9.90
2010,03,23,12,05,10.00
2010,03,23,12,06,10.10
2010,03,23,12,07,10.10
2010,03,23,12,08,10.20
2010,03,23,12,09,10.30
2010,03,23,12,10,10.40
2010,03,23,12,11,10.60
2010,03,23,12,12,10.70
2010,03,23,12,13,10.80
2010,03,23,12,14,10.90
2010,03,23,12,15,11.00
2010,03,23,12,16,11.10
2010,03,23,12,17,11.20
2010,03,23,12,18,11.30
2010,03,23,12,19,11.30
2010,03,23,12,20,11.40
2010,03,23,12,21,11.50
2010,03,23,12,22,11.60
2010,03,23,12,23,11.70
2010,03,23,12,24,11.80
2010,03,23,12,25,11.80
2010,03,23,12,26,11.80
2010,03,23,12,27,11.80
2010,03,23,12,28,11.80
2010,03,23,12,29,11.80
2010,03,23,12,30,11.70
2010,03,23,12,31,11.60
2010,03,23,12,32,11.50
2010,03,23,12,33,11.40
2010,03,23,12,34,11.30
2010,03,23,12,35,11.20
2010,03,23,12,36,11.20
2010,03,23,12,37,11.10
2010,03,23,12,38,11.10
2010,03,23,12,39,11.20
2010,03,23,12,40,11.30
2010,03,23,12,41,11.40
2010,03,23,12,42,11.60
2010,03,23,12,43,11.60
2010,03,23,12,44,11.60
2010,03,23,12,45,11.60
2010,03,23,12,46,11.60
2010,03,23,12,47,11.60
2010,03,23,12,48,11.60
2010,03,23,12,49,11.60
2010,03,23,12,50,11.60
2010,03,23,12,51,11.60
2010,03,23,12,52,11.60
2010,03,23,12,53,11.50
2010,03,23,12,54,11.40
2010,03,23,12,55,11.40
2010,03,23,12,56,11.40
2010,03,23,12,57,11.40
2010,03,23,12,58,11.40
2010,03,23,12,59,11.40
2010,03,23,13,00,11.40
2010,03,23,13,01,11.50
2010,03,23,13,02,11.60
2010,03,23,13,03,11.60
2010,03,23,13,04,11.60
2010,03,23,13,05,11.60
2010,03,23,13,06,11.60
2010,03,23,13,07,11.60
2010,03,23,13,08,11.50
2010,03,23,13,09,11.20
2010,03,23,13,10,11.10
2010,03,23,13,11,10.90
2010,03,23,13,12,10.90
2010,03,23,13,13,10.90
2010,03,23,13,14,11.00
2010,03,23,13,15,11.10
2010,03,23,13,16,11.10
2010,03,23,13,17,11.20
2010,03,23,13,18,11.30
2010,03,23,13,19,11.30
2010,03,23,13,20,11.30
2010,03,23,13,21,11.20
2010,03,23,13,22,11.30
2010,03,23,13,23,11.20
2010,03,23,13,24,11.30
2010,03,23,13,25,11.30
2010,03,23,13,26,11.40
2010,03,23,13,27,11.40
2010,03,23,13,28,11.30
2010,03,23,13,29,11.30
2010,03,23,13,30,11.20
2010,03,23,13,31,11.10
2010,03,23,13,32,11.00
2010,03,23,13,33,10.90
2010,03,23,13,34,10.90
2010,03,23,13,35,10.90
2010,03,23,13,36,10.90
2010,03,23,13,37,10.90
2010,03,23,13,38,10.90
2010,03,23,13,39,10.90
2010,03,23,13,40,11.00
2010,03,23,13,41,11.10
2010,03,23,13,42,11.10
2010,03,23,13,43,11.20
2010,03,23,13,44,11.20
2010,03,23,13,45,11.30
2010,03,23,13,46,11.30
2010,03,23,13,47,11.40
2010,03,23,13,48,11.40
2010,03,23,13,49,11.40
2010,03,23,13,50,11.40
2010,03,23,13,51,11.40
2010,03,23,13,52,11.40
2010,03,23,13,53,11.40
2010,03,23,13,54,11.30
2010,03,23,13,55,11.30
2010,03,23,13,56,11.30
2010,03,23,13,57,11.30
2010,03,23,13,58,11.40
2010,03,23,13,59,11.40
2010,03,23,14,00,11.40
2010,03,23,14,01,11.50
2010,03,23,14,02,11.60
2010,03,23,14,03,11.60
2010,03,23,14,04,11.70
2010,03,23,14,05,11.70
2010,03,23,14,06,11.80
2010,03,23,14,07,11.60
2010,03,23,14,08,11.40
2010,03,23,14,09,11.30
2010,03,23,14,10,11.10
2010,03,23,14,11,11.10
2010,03,23,14,12,11.00
2010,03,23,14,13,11.10
2010,03,23,14,14,11.00
2010,03,23,14,15,10.90
2010,03,23,14,16,10.90
2010,03,23,14,17,10.90
2010,03,23,14,18,10.90
2010,03,23,14,19,10.90
2010,03,23,14,20,10.80
2010,03,23,14,21,10.70
2010,03,23,14,22,10.70
2010,03,23,14,23,10.60
2010,03,23,14,24,10.60
2010,03,23,14,25,10.60
2010,03,23,14,26,10.60
2010,03,23,14,27,10.70
2010,03,23,14,28,10.70
2010,03,23,14,29,10.70
2010,03,23,14,30,10.70
2010,03,23,14,31,10.60
2010,03,23,14,32,10.60
2010,03,23,14,33,10.60
2010,03,23,14,34,10.60
2010,03,23,14,35,10.60
2010,03,23,14,36,10.60
2010,03,23,14,37,10.60
2010,03,23,14,38,10.60
2010,03,23,14,39,10.70
2010,03,23,14,40,10.70
2010,03,23,14,41,10.70
2010,03,23,14,42,10.70
2010,03,23,14,43,10.70
2010,03,23,14,44,10.60
2010,03,23,14,45,10.70
2010,03,23,14,46,10.70
2010,03,23,14,47,10.70
2010,03,23,14,48,10.70
2010,03,23,14,49,10.80
2010,03,23,14,50,10.80
2010,03,23,14,51,10.90
2010,03,23,14,52,10.90
2010,03,23,14,53,10.90
2010,03,23,14,54,10.90
2010,03,23,14,55,10.90
2010,03,23,14,56,11.00
2010,03,23,14,57,11.10
2010,03,23,14,58,11.20
2010,03,23,14,59,11.30
2010,03,23,15,00,11.40
2010,03,23,15,01,11.40
2010,03,23,15,02,11.60
2010,03,23,15,03,11.60
2010,03,23,15,04,11.60
2010,03,23,15,05,11.50
2010,03,23,15,06,11.40
2010,03,23,15,07,11.30
2010,03,23,15,08,11.30
2010,03,23,15,09,11.20
2010,03,23,15,10,11.00
2010,03,23,15,11,10.90
2010,03,23,15,12,10.90
2010,03,23,15,13,10.80
2010,03,23,15,14,10.80
2010,03,23,15,15,10.70
2010,03,23,15,16,10.80
2010,03,23,15,17,10.80
2010,03,23,15,18,10.90
2010,03,23,15,19,10.90
2010,03,23,15,20,11.10
2010,03,23,15,21,11.20
2010,03,23,15,22,11.20
2010,03,23,15,23,11.20
2010,03,23,15,24,11.30
2010,03,23,15,25,11.30
2010,03,23,15,26,11.30
2010,03,23,15,27,11.30
2010,03,23,15,28,11.30
2010,03,23,15,29,11.30
2010,03,23,15,30,11.40
2010,03,23,15,31,11.30
2010,03,23,15,32,11.30
2010,03,23,15,33,11.30
2010,03,23,15,34,11.30
2010,03,23,15,35,11.20
2010,03,23,15,36,11.20
2010,03,23,15,37,11.20
2010,03,23,15,38,11.30
2010,03,23,15,39,11.30
2010,03,23,15,40,11.20
2010,03,23,15,41,11.20
2010,03,23,15,42,11.20
2010,03,23,15,43,11.20
2010,03,23,15,44,11.20
2010,03,23,15,45,11.20
2010,03,23,15,46,11.20
2010,03,23,15,47,11.20
2010,03,23,15,48,11.20
2010,03,23,15,49,11.20
2010,03,23,15,50,11.20
2010,03,23,15,51,11.20
2010,03,23,15,52,11.20
2010,03,23,15,53,11.20
2010,03,23,15,54,11.30
2010,03,23,15,55,11.30
2010,03,23,15,56,11.40
2010,03,23,15,57,11.50
2010,03,23,15,58,11.60
2010,03,23,15,59,11.60
2010,03,23,16,00,11.60
2010,03,23,16,01,11.60
2010,03,23,16,02,11.60
2010,03,23,16,03,11.60
2010,03,23,16,04,11.60
2010,03,23,16,05,11.60
2010,03,23,16,06,11.60
2010,03,23,16,07,11.60
2010,03,23,16,08,11.60
2010,03,23,16,09,11.60
2010,03,23,16,10,11.40
2010,03,23,16,11,11.40
2010,03,23,16,12,11.40
2010,03,23,16,13,11.30
2010,03,23,16,14,11.20
2010,03,23,16,15,11.20
2010,03,23,16,16,11.20
2010,03,23,16,17,11.10
2010,03,23,16,18,11.20
2010,03,23,16,19,11.20
2010,03,23,16,20,11.20
2010,03,23,16,21,11.20
2010,03,23,16,22,11.20
2010,03,23,16,23,11.20
2010,03,23,16,24,11.20
2010,03,23,16,25,11.30
2010,03,23,16,26,11.30
2010,03,23,16,27,11.30
2010,03,23,16,28,11.30
2010,03,23,16,29,11.30
2010,03,23,16,30,11.20
2010,03,23,16,31,11.20
2010,03,23,16,32,11.20
2010,03,23,16,33,11.20
2010,03,23,16,34,11.20
2010,03,23,16,35,11.20
2010,03,23,16,36,11.20
2010,03,23,16,37,11.20
2010,03,23,16,38,11.20
2010,03,23,16,39,11.20
2010,03,23,16,40,11.20
2010,03,23,16,41,11.20
2010,03,23,16,42,11.30
2010,03,23,16,43,11.40
2010,03,23,16,44,11.50
2010,03,23,16,45,11.60
2010,03,23,16,46,11.60
2010,03,23,16,47,11.70
2010,03,23,16,48,11.80
2010,03,23,16,49,11.80
2010,03,23,16,50,11.70
2010,03,23,16,51,11.60
2010,03,23,16,52,11.60
2010,03,23,16,53,11.60
2010,03,23,16,54,11.60
2010,03,23,16,55,11.60
2010,03,23,16,56,11.60
2010,03,23,16,57,11.60
2010,03,23,16,58,11.40
2010,03,23,16,59,11.40
2010,03,23,17,00,11.40
2010,03,23,17,01,11.40
2010,03,23,17,02,11.40
2010,03,23,17,03,11.30
2010,03,23,17,04,11.20
2010,03,23,17,05,11.20
2010,03,23,17,06,11.20
2010,03,23,17,07,11.20
2010,03,23,17,08,11.20
2010,03,23,17,09,11.20
2010,03,23,17,10,11.20
2010,03,23,17,11,11.20
2010,03,23,17,12,11.10
2010,03,23,17,13,11.10
2010,03,23,17,14,11.10
2010,03,23,17,15,11.10
2010,03,23,17,16,11.10
2010,03,23,17,17,11.10
2010,03,23,17,18,11.10
2010,03,23,17,19,11.10
2010,03,23,17,20,11.10
2010,03,23,17,21,11.10
2010,03,23,17,22,11.10
2010,03,23,17,23,11.10
2010,03,23,17,24,11.10
2010,03,23,17,25,11.10
2010,03,23,17,26,11.10
2010,03,23,17,27,11.10
2010,03,23,17,28,11.10
2010,03,23,17,29,10.90
2010,03,23,17,30,10.90
2010,03,23,17,31,10.90
2010,03,23,17,32,10.90
2010,03,23,17,33,10.90
2010,03,23,17,34,10.90
2010,03,23,17,35,10.90
2010,03,23,17,36,10.90
2010,03,23,17,37,10.90
2010,03,23,17,38,10.90
2010,03,23,17,39,10.90
2010,03,23,17,40,10.90
2010,03,23,17,41,10.90
2010,03,23,17,42,10.90
2010,03,23,17,43,10.90
2010,03,23,17,44,10.90
2010,03,23,17,45,10.90
2010,03,23,17,46,10.90
2010,03,23,17,47,10.90
2010,03,23,17,48,10.80
2010,03,23,17,49,10.80
2010,03,23,17,50,10.80
2010,03,23,17,51,10.80
2010,03,23,17,52,10.80
2010,03,23,17,53,10.80
2010,03,23,17,54,10.80
2010,03,23,17,55,10.70
2010,03,23,17,56,10.70
2010,03,23,17,57,10.70
2010,03,23,17,58,10.70
2010,03,23,17,59,10.70
2010,03,23,18,00,10.70
2010,03,23,18,01,10.70
2010,03,23,18,02,10.60
2010,03,23,18,03,10.60
2010,03,23,18,04,10.60
2010,03,23,18,05,10.60
2010,03,23,18,06,10.60
2010,03,23,18,07,10.60
2010,03,23,18,08,10.60
2010,03,23,18,09,10.60
2010,03,23,18,10,10.60
2010,03,23,18,11,10.60
2010,03,23,18,12,10.60
2010,03,23,18,13,10.60
2010,03,23,18,14,10.60
2010,03,23,18,15,10.60
2010,03,23,18,16,10.60
2010,03,23,18,17,10.60
2010,03,23,18,18,10.60
2010,03,23,18,19,10.60
2010,03,23,18,20,10.60
2010,03,23,18,21,10.60
2010,03,23,18,22,10.60
2010,03,23,18,23,10.60
2010,03,23,18,24,10.60
2010,03,23,18,25,10.60
2010,03,23,18,26,10.50
2010,03,23,18,27,10.40
2010,03,23,18,28,10.40
2010,03,23,18,29,10.40
2010,03,23,18,30,10.40
2010,03,23,18,31,10.40
2010,03,23,18,32,10.40
2010,03,23,18,33,10.40
2010,03,23,18,34,10.40
2010,03,23,18,35,10.40
2010,03,23,18,36,10.40
2010,03,23,18,37,10.40
2010,03,23,18,38,10.40
2010,03,23,18,39,10.40
2010,03,23,18,40,10.40
2010,03,23,18,41,10.40
2010,03,23,18,42,10.30
2010,03,23,18,43,10.30
2010,03,23,18,44,10.30
2010,03,23,18,45,10.30
2010,03,23,18,46,10.30
2010,03,23,18,47,10.30
2010,03,23,18,48,10.30
2010,03,23,18,49,10.30
2010,03,23,18,50,10.20
2010,03,23,18,51,10.20
2010,03,23,18,52,10.20
2010,03,23,18,53,10.20
2010,03,23,18,54,10.20
2010,03,23,18,55,10.20
2010,03,23,18,56,10.20
2010,03,23,18,57,10.20
2010,03,23,18,58,10.20
2010,03,23,18,59,10.20
2010,03,23,19,00,10.20
2010,03,23,19,01,10.20
2010,03,23,19,02,10.20
2010,03,23,19,03,10.20
2010,03,23,19,04,10.20
2010,03,23,19,05,10.10
2010,03,23,19,06,10.10
2010,03,23,19,07,10.10
2010,03,23,19,08,10.10
2010,03,23,19,09,10.10
2010,03,23,19,10,10.10
2010,03,23,19,11,10.10
2010,03,23,19,12,10.10
2010,03,23,19,13,10.10
2010,03,23,19,14,10.10
2010,03,23,19,15,10.10
2010,03,23,19,16,9.90
2010,03,23,19,17,9.90
2010,03,23,19,18,9.90
2010,03,23,19,19,9.90
2010,03,23,19,20,9.90
2010,03,23,19,21,9.90
2010,03,23,19,22,9.80
2010,03,23,19,23,9.80
2010,03,23,19,24,9.80
2010,03,23,19,25,9.70
2010,03,23,19,26,9.70
2010,03,23,19,27,9.70
2010,03,23,19,28,9.70
2010,03,23,19,29,9.60
2010,03,23,19,30,9.60
2010,03,23,19,31,9.50
2010,03,23,19,32,9.50
2010,03,23,19,33,9.50
2010,03,23,19,34,9.50
2010,03,23,19,35,9.50
2010,03,23,19,36,9.50
2010,03,23,19,37,9.50
2010,03,23,19,38,9.50
2010,03,23,19,39,9.50
2010,03,23,19,40,9.40
2010,03,23,19,41,9.40
2010,03,23,19,42,9.40
2010,03,23,19,43,9.30
2010,03,23,19,44,9.30
2010,03,23,19,45,9.30
2010,03,23,19,46,9.20
2010,03,23,19,47,9.20
2010,03,23,19,48,9.10
2010,03,23,19,49,9.10
2010,03,23,19,50,9.00
2010,03,23,19,51,9.00
2010,03,23,19,52,8.90
2010,03,23,19,53,8.90
2010,03,23,19,54,8.90
2010,03,23,19,55,8.80
2010,03,23,19,56,8.80
2010,03,23,19,57,8.70
2010,03,23,19,58,8.70
2010,03,23,19,59,8.70
2010,03,23,20,00,8.70
2010,03,23,20,01,8.60
2010,03,23,20,02,8.60
2010,03,23,20,03,8.60
2010,03,23,20,04,8.50
2010,03,23,20,05,8.50
2010,03,23,20,06,8.50
2010,03,23,20,07,8.60
2010,03,23,20,08,8.60
2010,03,23,20,09,8.60
2010,03,23,20,10,8.60
2010,03,23,20,11,8.60
2010,03,23,20,12,8.50
2010,03,23,20,13,8.50
2010,03,23,20,14,8.40
2010,03,23,20,15,8.30
2010,03,23,20,16,8.30
2010,03,23,20,17,8.20
2010,03,23,20,18,8.20
2010,03,23,20,19,8.10
2010,03,23,20,20,8.10
2010,03,23,20,21,8.00
2010,03,23,20,22,8.00
2010,03,23,20,23,7.90
2010,03,23,20,24,7.90
2010,03,23,20,25,7.90
2010,03,23,20,26,7.80
2010,03,23,20,27,7.80
2010,03,23,20,28,7.80
2010,03,23,20,29,7.80
2010,03,23,20,30,7.70
2010,03,23,20,31,7.70
2010,03,23,20,32,7.70
2010,03,23,20,33,7.70
2010,03,23,20,34,7.70
2010,03,23,20,35,7.60
2010,03,23,20,36,7.60
2010,03,23,20,37,7.50
2010,03,23,20,38,7.50
2010,03,23,20,39,7.50
2010,03,23,20,40,7.50
2010,03,23,20,41,7.50
2010,03,23,20,42,7.40
2010,03,23,20,43,7.40
2010,03,23,20,44,7.40
2010,03,23,20,45,7.40
2010,03,23,20,46,7.30
2010,03,23,20,47,7.30
2010,03,23,20,48,7.30
2010,03,23,20,49,7.30
2010,03,23,20,50,7.30
2010,03,23,20,51,7.30
2010,03,23,20,52,7.30